User: anonymous   Login
Location: Drayton Valley
(53.2170°N, 114.9830°W)
Time: 18:12:17
(UTC-07:00)
Language:

Cosmos 1302 Rocket - Orbit

View from above orbital plane
View from above orbital plane
View from above satellite
View from above satellite

Ground track
Ground track

The orbit data is extracted from the following two-line orbital elements,

1 12792U 81084B   14353.91237926  .00000453  00000-0  16076-3 0  6898
2 12792 074.0309 270.8282 0012714 053.7507 012.7342 14.37210323744276
Epoch (UTC): 19 December 2014 21:53:49
Eccentricity: 0.0012714
inclination: 74.0309°
perigee height: 758 km
apogee height: 777 km
right ascension of ascending node: 270.8282°
argument of perigee: 53.7507°
revolutions per day: 14.37210323
mean anomaly at epoch: 12.7342°
orbit number at epoch: 74427

The dashed part of the orbit path shows where the satellite is in the earth's shadow,  

DLR